TimeMDT,TemperatureF,Dew PointF,Humidity,Sea Level PressureIn,VisibilityMPH,Wind Direction,Wind SpeedMPH,Gust SpeedMPH,PrecipitationIn,Events,Conditions,WindDirDegrees,DateUTC
12:15 AM,42.8,19.4,39,30.34,10.0,ESE,4.6,-,N/A,,Clear,110,2013-09-30 06:15:00
12:35 AM,41.0,21.2,45,30.33,10.0,SE,5.8,-,N/A,,Clear,140,2013-09-30 06:35:00
12:55 AM,41.0,21.2,45,30.33,10.0,SE,6.9,-,N/A,,Clear,130,2013-09-30 06:55:00
1:15 AM,41.0,19.4,42,30.33,10.0,ESE,5.8,-,N/A,,Clear,120,2013-09-30 07:15:00
1:35 AM,41.0,21.2,45,30.34,10.0,Calm,Calm,-,N/A,,Clear,0,2013-09-30 07:35:00
1:55 AM,42.8,21.2,42,30.33,10.0,SE,4.6,-,N/A,,Clear,130,2013-09-30 07:55:00
2:15 AM,41.0,21.2,45,30.33,10.0,SE,5.8,-,N/A,,Clear,140,2013-09-30 08:15:00
2:35 AM,41.0,21.2,45,30.33,10.0,Calm,Calm,-,N/A,,Clear,0,2013-09-30 08:35:00
2:55 AM,41.0,21.2,45,30.33,10.0,ESE,5.8,-,N/A,,Clear,120,2013-09-30 08:55:00
3:15 AM,41.0,23.0,49,30.33,10.0,ESE,6.9,-,N/A,,Clear,120,2013-09-30 09:15:00
3:35 AM,41.0,23.0,49,30.32,10.0,SE,6.9,-,N/A,,Clear,130,2013-09-30 09:35:00
3:55 AM,41.0,23.0,49,30.31,10.0,Calm,Calm,-,N/A,,Clear,0,2013-09-30 09:55:00
4:15 AM,41.0,21.2,45,30.30,10.0,SE,4.6,-,N/A,,Clear,130,2013-09-30 10:15:00
4:35 AM,41.0,23.0,49,30.30,10.0,SE,6.9,-,N/A,,Clear,130,2013-09-30 10:35:00
4:55 AM,41.0,21.2,45,30.29,10.0,SE,5.8,-,N/A,,Clear,130,2013-09-30 10:55:00
5:15 AM,41.0,23.0,49,30.30,10.0,East,5.8,-,N/A,,Clear,100,2013-09-30 11:15:00
5:35 AM,41.0,23.0,49,30.30,10.0,ESE,4.6,-,N/A,,Clear,120,2013-09-30 11:35:00
5:55 AM,41.0,23.0,49,30.30,10.0,SE,6.9,-,N/A,,Clear,130,2013-09-30 11:55:00
6:15 AM,41.0,23.0,49,30.30,10.0,SE,8.1,-,N/A,,Clear,140,2013-09-30 12:15:00
6:35 AM,41.0,23.0,49,30.30,10.0,SE,5.8,-,N/A,,Clear,130,2013-09-30 12:35:00
6:55 AM,39.2,23.0,52,30.30,10.0,SE,6.9,-,N/A,,Clear,130,2013-09-30 12:55:00
7:15 AM,41.0,23.0,49,30.30,10.0,ESE,6.9,-,N/A,,Clear,120,2013-09-30 13:15:00
7:35 AM,41.0,23.0,49,30.30,10.0,SE,8.1,-,N/A,,Clear,140,2013-09-30 13:35:00
7:55 AM,41.0,24.8,53,30.30,10.0,ESE,4.6,-,N/A,,Clear,120,2013-09-30 13:55:00
8:15 AM,42.8,23.0,46,30.30,10.0,ESE,4.6,-,N/A,,Clear,120,2013-09-30 14:15:00
8:35 AM,44.6,24.8,46,30.29,10.0,ESE,4.6,-,N/A,,Clear,110,2013-09-30 14:35:00
8:55 AM,46.4,26.6,46,30.28,10.0,ESE,6.9,-,N/A,,Clear,120,2013-09-30 14:55:00
9:15 AM,50.0,24.8,37,30.29,10.0,East,3.5,-,N/A,,Clear,100,2013-09-30 15:15:00
9:35 AM,51.8,23.0,33,30.29,10.0,Calm,Calm,-,N/A,,Clear,0,2013-09-30 15:35:00
9:55 AM,53.6,24.8,33,30.29,10.0,Calm,Calm,-,N/A,,Clear,0,2013-09-30 15:55:00
10:15 AM,55.4,24.8,31,30.29,10.0,East,3.5,-,N/A,,Clear,80,2013-09-30 16:15:00
10:35 AM,59.0,23.0,25,30.28,10.0,Calm,Calm,-,N/A,,Clear,0,2013-09-30 16:35:00
10:55 AM,60.8,19.4,20,30.28,10.0,Calm,Calm,-,N/A,,Clear,0,2013-09-30 16:55:00
11:15 AM,60.8,21.2,22,30.28,10.0,West,4.6,-,N/A,,Clear,280,2013-09-30 17:15:00
11:35 AM,62.6,21.2,20,30.28,10.0,Calm,Calm,-,N/A,,Clear,0,2013-09-30 17:35:00
11:55 AM,62.6,23.0,22,30.27,10.0,West,6.9,-,N/A,,Clear,270,2013-09-30 17:55:00
12:15 PM,62.6,21.2,20,30.27,10.0,WSW,9.2,-,N/A,,Clear,250,2013-09-30 18:15:00
12:35 PM,62.6,23.0,22,30.27,10.0,West,6.9,-,N/A,,Clear,260,2013-09-30 18:35:00
12:55 PM,62.6,23.0,22,30.26,10.0,West,11.5,-,N/A,,Clear,260,2013-09-30 18:55:00
1:15 PM,62.6,24.8,24,30.25,10.0,West,11.5,-,N/A,,Clear,260,2013-09-30 19:15:00
1:35 PM,64.4,26.6,24,30.25,10.0,WSW,10.4,-,N/A,,Clear,250,2013-09-30 19:35:00
1:55 PM,64.4,28.4,26,30.24,10.0,West,11.5,-,N/A,,Clear,270,2013-09-30 19:55:00
2:15 PM,64.4,28.4,26,30.23,10.0,West,11.5,-,N/A,,Clear,280,2013-09-30 20:15:00
2:35 PM,64.4,30.2,28,30.23,10.0,West,10.4,18.4,N/A,,Clear,280,2013-09-30 20:35:00
2:55 PM,64.4,30.2,28,30.22,10.0,West,10.4,-,N/A,,Clear,260,2013-09-30 20:55:00
3:15 PM,64.4,30.2,28,30.22,10.0,WSW,9.2,-,N/A,,Clear,250,2013-09-30 21:15:00
3:35 PM,66.2,30.2,26,30.22,10.0,West,13.8,19.6,N/A,,Clear,260,2013-09-30 21:35:00
3:55 PM,64.4,28.4,26,30.22,10.0,West,12.7,18.4,N/A,,Clear,260,2013-09-30 21:55:00
4:15 PM,64.4,28.4,26,30.22,10.0,West,15.0,18.4,N/A,,Clear,260,2013-09-30 22:15:00
4:35 PM,64.4,28.4,26,30.22,10.0,West,15.0,18.4,N/A,,Clear,260,2013-09-30 22:35:00
4:55 PM,64.4,28.4,26,30.22,10.0,West,9.2,-,N/A,,Clear,270,2013-09-30 22:55:00
5:15 PM,62.6,28.4,27,30.22,10.0,West,8.1,-,N/A,,Clear,280,2013-09-30 23:15:00
5:35 PM,62.6,28.4,27,30.23,10.0,West,12.7,-,N/A,,Clear,260,2013-09-30 23:35:00
5:55 PM,62.6,28.4,27,30.22,10.0,West,6.9,-,N/A,,Clear,270,2013-09-30 23:55:00
6:15 PM,62.6,28.4,27,30.22,10.0,West,9.2,-,N/A,,Clear,260,2013-10-01 00:15:00
6:35 PM,60.8,28.4,29,30.23,10.0,West,8.1,-,N/A,,Clear,260,2013-10-01 00:35:00
6:55 PM,59.0,30.2,34,30.23,10.0,West,6.9,-,N/A,,Clear,260,2013-10-01 00:55:00
7:15 PM,57.2,30.2,36,30.23,10.0,WSW,6.9,-,N/A,,Clear,240,2013-10-01 01:15:00
7:35 PM,55.4,30.2,38,30.24,10.0,Calm,Calm,-,N/A,,Clear,0,2013-10-01 01:35:00
7:55 PM,53.6,32.0,44,30.24,10.0,ESE,8.1,-,N/A,,Clear,120,2013-10-01 01:55:00
8:15 PM,51.8,32.0,47,30.25,10.0,Calm,Calm,-,N/A,,Clear,0,2013-10-01 02:15:00
8:35 PM,51.8,32.0,47,30.25,10.0,ESE,5.8,-,N/A,,Clear,120,2013-10-01 02:35:00
8:55 PM,51.8,32.0,47,30.25,10.0,SE,5.8,-,N/A,,Clear,130,2013-10-01 02:55:00
9:15 PM,50.0,32.0,50,30.26,10.0,SE,4.6,-,N/A,,Clear,130,2013-10-01 03:15:00
9:35 PM,48.2,32.0,54,30.26,10.0,SE,6.9,-,N/A,,Clear,130,2013-10-01 03:35:00
9:55 PM,46.4,32.0,57,30.26,10.0,ESE,5.8,-,N/A,,Clear,110,2013-10-01 03:55:00
10:15 PM,46.4,32.0,57,30.26,10.0,ESE,8.1,-,N/A,,Clear,120,2013-10-01 04:15:00
10:35 PM,46.4,32.0,57,30.26,10.0,ESE,5.8,-,N/A,,Clear,120,2013-10-01 04:35:00
10:55 PM,46.4,32.0,57,30.27,10.0,East,3.5,-,N/A,,Clear,90,2013-10-01 04:55:00
11:15 PM,46.4,32.0,57,30.27,10.0,ESE,4.6,-,N/A,,Clear,120,2013-10-01 05:15:00
11:35 PM,44.6,32.0,61,30.27,10.0,SE,3.5,-,N/A,,Clear,140,2013-10-01 05:35:00
11:55 PM,44.6,32.0,61,30.27,10.0,ESE,3.5,-,N/A,,Clear,120,2013-10-01 05:55:00